Warroad, MN

1:22 AM CST on February 26, 2017 (GMT -0600)
Warroad International-Carlson

Weather History for KRRT - December, 2012

Change the Weather History Date:

Sunday, December 2, 2012

  Actual Average Record
Temperature  
Mean Temperature 32 °F -  
Max Temperature 37 °F 22 °F 50 °F (1962)
Min Temperature 28 °F 5 °F -25 °F (1964)
Degree Days  
Heating Degree Days 32    
Moisture  
Dew Point 28 °F    
Average Humidity 86    
Maximum Humidity 93    
Minimum Humidity 81    
Precipitation  
Precipitation 0.00 in - - ()
Sea Level Pressure  
Sea Level Pressure 29.74 in    
Wind  
Wind Speed 6 mph (SE)    
Max Wind Speed 12 mph    
Max Gust Speed 17 mph    
Visibility 5 miles    
Events      
Averages and records for this station are not official NWS values.
T = Trace of Precipitation, MM = Missing Value Source: NWS Daily Summary

Daily Weather History Graph

Daily Weather History Graph

Search for Another Location

Airport or City:

Trip Planner

Search our weather history database for the weather conditions in past years. The results will help you decide how hot, cold, wet, or windy it might be!

Date:

Astronomy

Dec. 02, 2012 Rise Set
Actual Time 7:55 AM CST 4:26 PM CST
Civil Twilight 7:19 AM CST 5:02 PM CST
Nautical Twilight 6:39 AM CST 5:42 PM CST
Astronomical Twilight 6:01 AM CST 6:20 PM CST
Moon 8:23 PM CST (12/2) 10:38 AM CST (12/2)
Length of Visible Light 9h 43m
Length of Day
8h 30m
Waning Gibbous, 85% of the Moon is Illuminated
Dec 2
Waning Gibbous
Dec 6
Last Quarter
Dec 13
New
Dec 19
First Quarter
Dec 28
Full

Hourly Weather History & Observations

Time (CST) Temp. Windchill Dew Point Humidity Pressure Visibility Wind Dir Wind Speed Gust Speed Precip Events Conditions
12:14 AM 28.4 °F 23.3 °F 26.6 °F 93% 29.85 in 7.0 mi WNW 4.6 mph - N/A   Overcast
12:34 AM 28.4 °F 21.2 °F 24.8 °F 86% 29.86 in 7.0 mi WNW 6.9 mph - N/A   Overcast
12:54 AM 28.4 °F 22.2 °F 24.8 °F 86% 29.86 in 7.0 mi WNW 5.8 mph - N/A   Overcast
1:14 AM 28.4 °F 23.3 °F 24.8 °F 86% 29.86 in 10.0 mi WNW 4.6 mph - N/A   Overcast
1:34 AM 28.4 °F - 24.8 °F 86% 29.85 in 10.0 mi Calm Calm - N/A   Overcast
1:54 AM 28.4 °F 22.2 °F 24.8 °F 86% 29.87 in 10.0 mi West 5.8 mph - N/A   Overcast
2:14 AM 28.4 °F 21.2 °F 24.8 °F 86% 29.87 in 10.0 mi WNW 6.9 mph - N/A   Overcast
2:34 AM 28.4 °F 23.3 °F 24.8 °F 86% 29.88 in 7.0 mi WNW 4.6 mph - N/A   Overcast
2:54 AM 28.4 °F 24.6 °F 24.8 °F 86% 29.89 in 7.0 mi WNW 3.5 mph - N/A   Overcast
3:14 AM 28.4 °F 24.6 °F 24.8 °F 86% 29.88 in 7.0 mi NW 3.5 mph - N/A   Overcast
3:34 AM 28.4 °F - 24.8 °F 86% 29.88 in 7.0 mi Calm Calm - N/A   Overcast
3:54 AM 28.4 °F - 24.8 °F 86% 29.87 in 7.0 mi Calm Calm - N/A   Overcast
4:14 AM 28.4 °F - 24.8 °F 86% 29.87 in 7.0 mi Calm Calm - N/A   Overcast
4:34 AM 28.4 °F - 24.8 °F 86% 29.86 in 7.0 mi Calm Calm - N/A   Overcast
4:54 AM 28.4 °F - 24.8 °F 86% 29.87 in 7.0 mi Calm Calm - N/A   Overcast
5:14 AM 28.4 °F - 24.8 °F 86% 29.88 in 7.0 mi Calm Calm - N/A   Overcast
5:34 AM 28.4 °F 24.6 °F 24.8 °F 86% 29.87 in 7.0 mi SSE 3.5 mph - N/A   Overcast
6:15 AM 28.4 °F 24.6 °F 24.8 °F 86% 29.88 in 5.0 mi SSW 3.5 mph - N/A   Overcast
6:34 AM 28.4 °F - 24.8 °F 86% 29.88 in 7.0 mi Calm Calm - N/A   Overcast
6:54 AM 28.4 °F 23.3 °F 24.8 °F 86% 29.86 in 7.0 mi SSE 4.6 mph - N/A   Overcast
7:15 AM 28.4 °F 23.3 °F 24.8 °F 86% 29.87 in 7.0 mi SSE 4.6 mph - N/A   Overcast
7:34 AM 28.4 °F 22.2 °F 24.8 °F 86% 29.86 in 7.0 mi SSE 5.8 mph - N/A   Overcast
7:54 AM 28.4 °F 21.2 °F 24.8 °F 86% 29.85 in 7.0 mi SSE 6.9 mph - N/A   Overcast
8:14 AM 28.4 °F 21.2 °F 24.8 °F 86% 29.85 in 7.0 mi SSE 6.9 mph - N/A   Overcast
8:34 AM 28.4 °F 21.2 °F 26.6 °F 93% 29.85 in 5.0 mi SSE 6.9 mph - N/A   Overcast
8:54 AM 28.4 °F 19.1 °F 26.6 °F 93% 29.85 in 4.0 mi SSE 10.4 mph - N/A   Overcast
9:14 AM 28.4 °F 19.1 °F 26.6 °F 93% 29.84 in 4.0 mi SSE 10.4 mph - N/A   Overcast
9:34 AM 30.2 °F 23.4 °F 26.6 °F 86% 29.82 in 4.0 mi SSE 6.9 mph - N/A   Overcast
9:54 AM 30.2 °F 21.3 °F 26.6 °F 86% 29.83 in 5.0 mi SSE 10.4 mph - N/A   Overcast
10:14 AM 30.2 °F 21.9 °F 26.6 °F 86% 29.82 in 5.0 mi SSE 9.2 mph - N/A   Overcast
10:34 AM 30.2 °F 20.8 °F 26.6 °F 86% 29.82 in 4.0 mi SSE 11.5 mph - N/A   Overcast
10:54 AM 30.2 °F 21.3 °F 26.6 °F 86% 29.81 in 4.0 mi SSE 10.4 mph - N/A   Overcast
11:14 AM 30.2 °F 20.8 °F 28.4 °F 93% 29.79 in 4.0 mi SSE 11.5 mph - N/A   Overcast
11:34 AM 32.0 °F 23.6 °F 28.4 °F 87% 29.78 in 3.0 mi SSE 10.4 mph - N/A   Overcast
11:54 AM 32.0 °F 24.2 °F 28.4 °F 87% 29.77 in 3.0 mi SSE 9.2 mph - N/A   Overcast
12:14 PM 32.0 °F 23.0 °F 28.4 °F 87% 29.76 in 3.0 mi SSE 11.5 mph - N/A   Overcast
12:34 PM 33.8 °F 25.3 °F 28.4 °F 81% 29.75 in 3.0 mi SSE 11.5 mph - N/A   Overcast
12:54 PM 33.8 °F 27.0 °F 28.4 °F 81% 29.75 in 3.0 mi SSE 8.1 mph - N/A   Overcast
1:14 PM 33.8 °F 25.8 °F 30.2 °F 87% 29.75 in 3.0 mi South 10.4 mph - N/A   Overcast
1:34 PM 33.8 °F 26.4 °F 30.2 °F 87% 29.74 in 4.0 mi SSE 9.2 mph - N/A   Overcast
1:54 PM 33.8 °F 27.0 °F 30.2 °F 87% 29.73 in 4.0 mi SSE 8.1 mph - N/A   Overcast
2:14 PM 35.6 °F 29.2 °F 30.2 °F 81% 29.72 in 4.0 mi South 8.1 mph - N/A   Overcast
2:34 PM 35.6 °F 28.6 °F 30.2 °F 81% 29.71 in 4.0 mi SSE 9.2 mph - N/A   Overcast
2:54 PM 35.6 °F 28.6 °F 32.0 °F 87% 29.71 in 4.0 mi SSE 9.2 mph - N/A   Overcast
3:14 PM 35.6 °F 29.2 °F 32.0 °F 87% 29.70 in 4.0 mi SE 8.1 mph - N/A   Overcast
3:34 PM 35.6 °F 29.2 °F 32.0 °F 87% 29.69 in 4.0 mi SE 8.1 mph - N/A   Scattered Clouds
3:54 PM 35.6 °F 28.6 °F 32.0 °F 87% 29.68 in 5.0 mi SE 9.2 mph - N/A   Clear
4:14 PM 35.6 °F 30.7 °F 30.2 °F 81% 29.68 in 4.0 mi SE 5.8 mph - N/A   Clear
4:34 PM 35.6 °F 29.9 °F 30.2 °F 81% 29.67 in 5.0 mi SE 6.9 mph - N/A   Clear
4:54 PM 33.8 °F 28.6 °F 30.2 °F 87% 29.66 in 5.0 mi ESE 5.8 mph - N/A   Clear
5:14 PM 33.8 °F 28.6 °F 30.2 °F 87% 29.66 in 5.0 mi SE 5.8 mph - N/A   Scattered Clouds
5:34 PM 33.8 °F 27.7 °F 30.2 °F 87% 29.66 in 4.0 mi ESE 6.9 mph - N/A   Scattered Clouds
5:54 PM 33.8 °F 28.6 °F 30.2 °F 87% 29.66 in 4.0 mi ESE 5.8 mph - N/A   Scattered Clouds
6:14 PM 33.8 °F 28.6 °F 30.2 °F 87% 29.66 in 4.0 mi ESE 5.8 mph - N/A   Clear
6:34 PM 33.8 °F 27.7 °F 30.2 °F 87% 29.65 in 4.0 mi ESE 6.9 mph - N/A   Scattered Clouds
6:54 PM 33.8 °F 27.0 °F 30.2 °F 87% 29.63 in 4.0 mi East 8.1 mph - N/A   Scattered Clouds
7:14 PM 33.8 °F 27.7 °F 28.4 °F 81% 29.63 in 3.0 mi East 6.9 mph - N/A   Clear
7:34 PM 33.8 °F 27.0 °F 30.2 °F 87% 29.62 in 4.0 mi East 8.1 mph - N/A   Clear
7:54 PM 33.8 °F 26.4 °F 30.2 °F 87% 29.60 in 4.0 mi East 9.2 mph - N/A   Clear
8:14 PM 33.8 °F 27.0 °F 28.4 °F 81% 29.59 in 4.0 mi East 8.1 mph - N/A   Clear
8:34 PM 33.8 °F 27.7 °F 28.4 °F 81% 29.59 in 4.0 mi East 6.9 mph - N/A   Clear
8:54 PM 32.0 °F 25.6 °F 28.4 °F 87% 29.59 in 3.0 mi East 6.9 mph - N/A   Clear
9:14 PM 32.0 °F 26.4 °F 28.4 °F 87% 29.58 in 3.0 mi East 5.8 mph - N/A   Clear
9:34 PM 33.8 °F 27.0 °F 28.4 °F 81% 29.56 in 3.0 mi East 8.1 mph - N/A   Clear
9:54 PM 33.8 °F 26.4 °F 30.2 °F 87% 29.55 in 4.0 mi East 9.2 mph - N/A   Scattered Clouds
10:14 PM 33.8 °F 26.4 °F 30.2 °F 87% 29.54 in 3.0 mi East 9.2 mph - N/A   Clear
10:34 PM 35.6 °F 27.5 °F 30.2 °F 81% 29.52 in 4.0 mi SE 11.5 mph - N/A   Clear
10:54 PM 37.4 °F 31.4 °F 33.8 °F 87% 29.51 in 5.0 mi ESE 8.1 mph - N/A   Clear
11:14 PM 37.4 °F 30.3 °F 33.8 °F 87% 29.49 in 5.0 mi ESE 10.4 mph 17.3 mph N/A   Clear
11:35 PM 37.4 °F 29.8 °F 33.8 °F 87% 29.49 in 5.0 mi ESE 11.5 mph - N/A   Clear
11:54 PM 37.4 °F 30.8 °F 33.8 °F 87% 29.47 in 5.0 mi ESE 9.2 mph - N/A   Clear